This is the latest recevied weather packets stored in our database for station/object KB2EAR-13. If no packets are shown the sender has not sent any weather packets the latest 10 day(s).
| Time | Temp. | Humidity | Pressure | Rain* | Wind** | Luminosity | Snow |
|---|---|---|---|---|---|---|---|
| 1777524918 | 8.89° C | 94% | 1010.3 hPa | 0.25 mm | - | - | - |
| 1777524618 | 8.89° C | 94% | 1010.4 hPa | 0.25 mm | - | - | - |
| 1777524318 | 8.89° C | 94% | 1010.4 hPa | 0.25 mm | - | - | - |
| 1777524018 | 8.89° C | 94% | 1010.6 hPa | 0 mm | - | - | - |
| 1777523718 | 8.89° C | 93% | 1010.3 hPa | 0.25 mm | - | - | - |
| 1777523418 | 8.89° C | 93% | 1010.8 hPa | 0.25 mm | - | - | - |
| 1777523118 | 8.89° C | 93% | 1011 hPa | 0.25 mm | - | - | - |
| 1777522958 | 8.89° C | 93% | 1010.9 hPa | 0.51 mm | - | - | - |
| 1777522818 | 8.89° C | 93% | 1010.9 hPa | 0.51 mm | - | - | - |
| 1777522601 | 8.89° C | 93% | 1010.8 hPa | 0.51 mm | - | - | - |
| 1777522518 | 8.89° C | 93% | 1010.8 hPa | 0.51 mm | - | - | - |
| 1777522218 | 8.89° C | 93% | 1011 hPa | 0.76 mm | - | - | - |
| 1777521918 | 8.89° C | 93% | 1010.8 hPa | 0.76 mm | - | - | - |
| 1777521709 | 8.89° C | 93% | 1010.8 hPa | 0.76 mm | - | - | - |
| 1777521636 | 8.89° C | 93% | 1010.4 hPa | 0.76 mm | - | - | - |
| 1777521318 | 8.89° C | 93% | 1010.4 hPa | 0.76 mm | - | - | - |
| 1777521018 | 8.89° C | 93% | 1010.5 hPa | 1.02 mm | - | - | - |
| 1777520718 | 8.89° C | 93% | 1010.5 hPa | 1.27 mm | - | - | - |
| 1777520418 | 8.89° C | 93% | 1010.4 hPa | 1.78 mm | - | - | - |
| 1777520118 | 8.89° C | 93% | 1010.4 hPa | 1.78 mm | - | - | - |
| 1777519818 | 8.89° C | 93% | 1010.5 hPa | 2.03 mm | - | - | - |
| 1777519518 | 8.89° C | 93% | 1010.5 hPa | 2.29 mm | - | - | - |
| 1777519218 | 8.89° C | 93% | 1010.7 hPa | 2.29 mm | - | - | - |
| 1777518918 | 8.89° C | 93% | 1010.8 hPa | 2.54 mm | - | - | - |
| 1777518618 | 8.89° C | 93% | 1010.5 hPa | 2.54 mm | - | - | - |
* Rain latest hour (hover to see other rain measurements)
** Current wind speed in m/s (hover to see current wind gust speed)